(79) Eurynome
ephemeris date magn radius delta ra dec elong phase
Today9 May 202512.82.425 AU2.487 AU08h17m+15°42'74.7°23.7°
Opposition30 Apr 202611.62.905 AU1.898 AU14h33m-13°17'178.3°0.6°
(79) Eurynome - 2025-05-09
astro.vanbuitenen.nl


 
-1 year
-1 month
-1 day
Now
+1 day
+1 month
+1 year

The interactive orbit chart above shows the body's path through the solar system and its position at the given date. Green and blue lines are shown perpendicular to the ecliptic plane: Green if the path is above the ecliptic plane, blue if it is below. (Left-click and drag to rotate the view; Right-click and drag to move the view; Use scroll wheel to zoom in our out.)

The orbital elements of Eurynome are:

            e (Eccentricity)                : 0.1910968
            a (Semimajor axis)              : 2.4441040
            i (Inclination)                 : 4.61307
            Ω (Longitude of ascending node) : 206.50329
            ω (Argument of perihelion)      : 201.41444
            M (Mean anomaly)                : 75.70082
            Epoch                           : 2025 May 05

            L (Longitude of perihelion)     : 227.85461
            B (Latitude of perihelion)      : -1.68271
            P (Orbital period in years)     : 3.82            
        

The light curve chart below shows the estimated development of the minor planet's magnitude.


The all-sky chart below shows the path of the minor planet over the same period as the light curve. The current position is marked yellow.





The following chart shows the path of the minor planet in the next few days. The field of view is optimized for (~10x50) binoculars and finderscopes. A more printer-friendly version of the same chart can be found below.




Ephemerides:
Date       Time       RA (2000)    DEC (2000)    delta   radius  elong  phase   PA    magn
2025-05-09 00:00 UT   08 17 23.8   +15 42 07     2.487    2.425   74.7   23.7   104   12.8 
2025-05-09 07:53 UT   08 17 52.1   +15 41 07     2.491    2.426   74.5   23.6   104   12.8 
2025-05-10 00:00 UT   08 18 50.0   +15 39 04     2.501    2.427   74.1   23.6   104   12.8 
2025-05-11 00:00 UT   08 20 16.7   +15 35 55     2.515    2.429   73.5   23.5   104   12.8 
2025-05-12 00:00 UT   08 21 43.8   +15 32 41     2.529    2.431   72.9   23.4   105   12.8 
2025-05-13 00:00 UT   08 23 11.3   +15 29 21     2.543    2.434   72.3   23.3   105   12.8 
2025-05-14 00:00 UT   08 24 39.2   +15 25 57     2.556    2.436   71.7   23.2   105   12.9 
2025-05-15 00:00 UT   08 26 07.4   +15 22 27     2.570    2.438   71.1   23.1   105   12.9 
2025-05-16 00:00 UT   08 27 36.0   +15 18 53     2.584    2.440   70.5   23.0   105   12.9 
2025-05-17 00:00 UT   08 29 05.0   +15 15 13     2.598    2.442   69.9   22.9   105   12.9 
2025-05-18 00:00 UT   08 30 34.2   +15 11 28     2.612    2.444   69.3   22.8   105   12.9 
2025-05-19 00:00 UT   08 32 03.9   +15 07 38     2.625    2.446   68.7   22.7   106   12.9 
2025-05-20 00:00 UT   08 33 33.8   +15 03 42     2.639    2.448   68.1   22.5   106   12.9 
2025-05-21 00:00 UT   08 35 04.0   +14 59 42     2.652    2.450   67.5   22.4   106   12.9 
2025-05-22 00:00 UT   08 36 34.6   +14 55 37     2.666    2.453   66.9   22.3   106   12.9 
2025-05-23 00:00 UT   08 38 05.4   +14 51 27     2.679    2.455   66.3   22.2   106   12.9 
2025-05-24 00:00 UT   08 39 36.5   +14 47 11     2.693    2.457   65.7   22.1   106   12.9 
2025-05-25 00:00 UT   08 41 07.9   +14 42 51     2.706    2.459   65.1   21.9   107   13.0 
2025-05-26 00:00 UT   08 42 39.6   +14 38 26     2.720    2.461   64.6   21.8   107   13.0 
2025-05-27 00:00 UT   08 44 11.5   +14 33 55     2.733    2.463   64.0   21.7   107   13.0 
2025-05-28 00:00 UT   08 45 43.7   +14 29 20     2.746    2.465   63.4   21.6   107   13.0 
2025-05-29 00:00 UT   08 47 16.1   +14 24 40     2.760    2.467   62.8   21.4   107   13.0 
2025-05-30 00:00 UT   08 48 48.7   +14 19 55     2.773    2.469   62.2   21.3   107   13.0 
2025-05-31 00:00 UT   08 50 21.6   +14 15 06     2.786    2.471   61.7   21.2   107   13.0 
2025-06-01 00:00 UT   08 51 54.7   +14 10 11     2.799    2.473   61.1   21.0   108   13.0 


    Terminology:
            
    delta:  distance between minor planet and earth in AU
    radius: distance between minor planet and sun in AU
    magn:   magnitude (brightness) estimate    
    ra:     right ascension in hours (24h = 360deg)
    dec:    declination in degrees
    elong:  elongation in degrees (angle sun-earth-minor planet)    
    phase:  phase angle in degrees (angle sun-minor planet-earth)        
    AU:     Astronomical Unit (mean distance between earth and sun: 149597870.7 km
    

Orbital elements provided by the MPC (Minor Planet Center).
Calculations by a modified version of AAPlus, a C# implementation of the AA+ project by PJ Naughter from the algorithms presented in the book "Astronomical Algorithms" by Jean Meeus.
NGC2000 dso catalog and star labels from VizieR as provided by the Strasbourg astronomical Data Center.
Tycho2 catalog from the ESO archive.